Location: Unspecified
(51.6250°N, 0.8230°E)
Time: 11:33:10
(UTC+01:00)

Okean 3 - Visible Passes

Search period start: 27 June 2017 00:00
Search period end: 07 July 2017 00:00
Orbit: 578 x 602 km, 82.5° (Epoch: 26 June)

Date Brightness Start Highest point End Pass type
(mag) Time Alt. Az. Time Alt. Az. Time Alt. Az.
27 Jun 6.0 01:01:14 10° NNE 01:03:41 15° ENE 01:06:08 10° E visible
27 Jun 3.4 02:37:16 10° NNW 02:41:33 76° W 02:45:08 14° S visible
28 Jun 5.7 01:09:00 10° NNE 01:12:09 20° ENE 01:15:17 10° ESE visible
28 Jun 3.7 02:45:37 10° NNW 02:49:46 52° W 02:53:02 15° SSW visible
29 Jun 5.2 01:16:57 10° N 01:20:34 27° ENE 01:24:10 10° SE visible
29 Jun 4.2 02:54:02 10° NNW 02:57:57 36° W 03:00:58 15° SSW visible
30 Jun 4.7 01:25:00 10° N 01:28:57 36° ENE 01:32:22 13° SE visible
30 Jun 4.7 03:02:32 10° NNW 03:06:05 26° W 03:08:54 14° SW visible
01 Jul 4.1 01:33:08 10° N 01:37:17 51° ENE 01:40:20 17° SSE visible
01 Jul 5.2 03:11:11 10° NW 03:14:11 19° W 03:16:52 11° SW visible
02 Jul 6.2 00:06:33 10° NE 00:07:28 11° ENE 00:08:23 10° ENE visible
02 Jul 3.6 01:41:20 10° N 01:45:35 74° ENE 01:48:19 21° SSE visible
02 Jul 5.6 03:20:08 10° NW 03:22:15 14° W 03:24:21 10° WSW visible
03 Jul 5.9 00:13:38 10° NNE 00:15:58 14° ENE 00:18:18 10° E visible
03 Jul 3.4 01:49:35 10° NNW 01:53:50 78° W 01:56:19 24° S visible
04 Jul 5.6 00:21:21 10° NNE 00:24:26 19° ENE 00:27:29 10° ESE visible
04 Jul 3.7 01:57:55 10° NNW 02:02:03 54° W 02:04:20 24° SSW visible
05 Jul 5.1 00:29:16 10° N 00:32:51 26° ENE 00:35:49 13° ESE visible
05 Jul 4.2 02:06:19 10° NNW 02:10:14 37° W 02:12:22 22° SW visible
06 Jul 4.6 00:37:19 10° N 00:41:14 35° ENE 00:43:52 18° SE visible
06 Jul 4.8 02:14:49 10° NNW 02:18:23 27° W 02:20:24 18° SW visible
